Simultaneous Nadir Overpasses (SNOs) Predictions

Prediction of SNOs between NOAA-19 and METOP-C Satellite Orbit:

Table of predicted SNOs for the next 14.0 days since TLE Epoch: 5/27/2023
Index Date (NOAA-19) Time (NOAA-19) Lat,Lon (NOAA-19) SZA (NOAA-19 ) Date (METOP-C) Time (METOP-C) Lat,Lon (METOP-C) SZA (METOP-C ) Distance(km) Time Diff (sec)
1 05/27/2023 03:57:42 80.93, 155.69 61.48 05/27/2023 03:56:52 80.93, 155.53 61.44 2.87 50
2 05/27/2023 04:48:45 -80.93, -37.30 118.56 05/27/2023 04:47:33 -80.92, -37.38 118.60 1.86 72
3 06/07/2023 09:22:19 -80.92,-106.35 120.16 06/07/2023 09:23:29 -80.91,-106.53 120.15 3.29 70
4 06/07/2023 10:13:18 80.92, 61.02 59.86 06/07/2023 10:14:09 80.92, 60.92 59.87 1.83 51
5 06/07/2023 11:04:17 -80.92,-131.81 120.16 06/07/2023 11:04:49 -80.92,-131.69 120.13 2.17 32
6 06/07/2023 11:55:16 80.92, 35.56 59.85 06/07/2023 11:55:30 80.91, 35.40 59.84 3.14 14
7 06/07/2023 12:46:15 -80.92,-156.90 120.12 06/07/2023 12:46:10 -80.93,-156.85 120.12 1.24 5
8 06/07/2023 13:37:15 80.92, 10.11 59.85 06/07/2023 13:36:51 80.92, 10.24 59.85 2.34 24
9 06/07/2023 14:28:14 -80.93, 177.63 120.13 06/07/2023 14:27:32 -80.92, 177.63 120.15 0.22 42



Historial Predications of SNOs between NOAA-19 and METOP-C
